Regional Weather Roundup
Issued by NWS Burlington, VT

Home | Current Version | Previous Version | Text Only | Print | Product List | Glossary On
Versions: 1 2 3 4 5 6 7 8 9 10 11 12 13 14 15 16 17 18 19 20 21 22 23 24 25 26 27 28 29 30 31 32 33 34 35 36 37 38 39 40 41 42 43 44 45 46 47 48 49 50
000
ASUS41 KBTV 281110
RWRBTV
VERMONT REGIONAL WEATHER ROUNDUP
NATIONAL WEATHER SERVICE BURLINGTON VT
700 AM EDT THU AUG 28 2014

NOTE: "FAIR" INDICATES FEW OR NO CLOUDS BELOW 12,000 FEET WITH NO
SIGNIFICANT WEATHER AND/OR OBSTRUCTIONS TO VISIBILITY.

* THESE REPORTS ARE NOT UNDER NWS QUALITY CONTROL AND/OR DO NOT
  REPORT WEATHER SUCH AS PRECIPITATION AND FOG.

VTZ001>019-281200-
_____VERMONT_____


CITY           SKY/WX    TMP DP  RH WIND       PRES   REMARKS
BURLINGTON     PTSUNNY   64  57  78 N10       29.92R
MONTPELIER     MOSUNNY   57  55  93 CALM      29.94R
MORRISVILLE    CLOUDY    56  54  93 CALM      29.92R
ST. JOHNSBURY*   N/A     55  55 100 MISG      29.89R
MIDDLEBURY*    CLOUDY    59  59 100 CALM      29.91R
RUTLAND*       PTSUNNY   57  55  94 CALM      29.91S
SPRINGFIELD    MOSUNNY   57  56  96 CALM      29.90R
HIGHGATE*      CLOUDY    62  58  87 NW5       29.92R
NEWPORT*       PTSUNNY   58  55  91 NW3       29.92R
BENNINGTON     CLOUDY    60  58  92 CALM      29.92S

_____LAKE CHAMPLAIN_____


CITY           SKY/WX    TMP DP  RH WIND       PRES   REMARKS
COLCHESTER RF*   N/A     64  57  77 N15         N/A
DIAMOND ISL*     N/A     64  57  77 N5          N/A

$$

NYZ007-026>031-035-052-083-281200-
_____NORTHERN NEW YORK_____


CITY           SKY/WX    TMP DP  RH WIND       PRES   REMARKS
PLATTSBURGH    MOSUNNY   61  55  81 NW7       29.92R
SARANAC LAKE   CLOUDY    56  54  93 CALM      29.95R
MASSENA        PTSUNNY   60  57  89 W5        29.96R
OGDENSBURG*    PTSUNNY   61  57  88 NW7       29.97R
POTSDAM*       CLOUDY    59  59 100 CALM      29.97R
WATERTOWN      CLOUDY    62  56  80 CALM      29.98R
FT DRUM        CLOUDY    59  57  93 VRB3      29.98R
ALBANY         MOSUNNY   63  58  83 NW7       29.92R
GLENS FALLS    CLOUDY    62  57  83 NW3       29.91R

$$
NHZ002-005-011-281200-
_____NEW HAMPSHIRE_____


CITY           SKY/WX    TMP DP  RH WIND       PRES   REMARKS
LEBANON        MOSUNNY   56  53  90 CALM      29.89R
KEENE          CLOUDY    59  52  77 CALM      29.89R VSB<1/4
MT WASHINGTON  FOG       43  43 100 W39G45      N/A  VSB 0
PLYMOUTH       FAIR      61  60  97 W6        29.87R
WHITEFIELD     CLOUDY    52  51  97 CALM      29.90R FOG

$$

_____REGIONAL QUEBEC LOCATIONS_____


CITY           SKY/WX    TMP DP  RH WIND       PRES   REMARKS
MONTREAL       PTSUNNY   61  54  77 NW6       29.93R
QUEBEC CITY    MOSUNNY   59  54  82 SW8       29.85R
SHERBROOKE     CLOUDY    55  55 100 CALM      29.89R

_____REGIONAL ONTARIO LOCATIONS_____


CITY           SKY/WX    TMP DP  RH WIND       PRES   REMARKS
OTTAWA         PTSUNNY   59  55  88 W5        29.97R

______KEY______
VSB  - VISIBILITY IN MILES
WCI  - WIND CHILL INDEX
HX   - HEAT INDEX
$$
NNNN



USA.gov is the U.S. government's official web portal to all federal, state and local government web resources and services.